Regional Weather Roundup
Issued by NWS

Home | Current Version | Previous Version | Graphics & Text | Print | Product List | Glossary Off
Versions: 1 2 3 4 5 6 7 8 9 10 11 12 13 14 15 16 17 18 19 20 21 22 23 24 25 26 27 28 29 30 31 32 33 34 35 36 37 38 39 40 41 42 43 44 45 46 47 48 49 50

000
ASUS43 KMKX 241500
RWRWI

WISCONSIN REGIONAL WEATHER ROUNDUP
NATIONAL WEATHER SERVICE MILWAUKEE/SULLIVAN WI
1000 AM CDT FRI OCT 24 2014

NOTE: "FAIR" INDICATES FEW OR NO CLOUDS BELOW 12,000 FEET WITH NO
SIGNIFICANT WEATHER AND/OR OBSTRUCTIONS TO VISIBILITY.

WIZ001-002-006>008-014>016-023>028-241600-
NORTHWEST WISCONSIN

CITY           SKY/WX    TMP DP  RH WIND       PRES   REMARKS
SUPERIOR ARPT  MOSUNNY   49  49 100 CALM      29.87S FOG
ASHLAND        CLOUDY    51  49  92 S7        29.90S
HAYWARD        MOSUNNY   51  47  86 S8        29.92F
SIREN          MOSUNNY   51  48  90 S10       29.89F
CUMBERLAND     CLOUDY    46  46 100 S7        29.94S FOG
RICE LAKE      CLOUDY    49  47  93 SE9       29.96S FOG
CHETEK         CLOUDY    49  48  98 E8        29.95F FOG
LADYSMITH      CLOUDY    47  47  97 S6        29.98F FOG
EAU CLAIRE     NOT AVBL
MENOMONIE      CLOUDY    50  49  95 SE8       29.96S FOG
NEW RICHMOND   PTSUNNY   51  51  99 SE9       29.92S
OSCEOLA        PTSUNNY   51  51  98 SE10      29.93F
$$

WIZ003>005-009-010-017-018-241600-
NORTH CENTRAL WISCONSIN

CITY           SKY/WX    TMP DP  RH WIND       PRES   REMARKS
MANITOWISH WTR CLOUDY    44  44 100 S8        29.96S FOG
ARBOR VITAE    FOG       45  44  97 S7        29.97S VSB 3/4
WOODRUFF       FOG       45  44  97 S7        29.97S VSB 3/4
RHINELANDER    FOG       44  43  96 SW6       29.98F VSB 1/2
EAGLE RIVER    FOG       44  44 100 SW5       29.97S VSB 1/4
LAND O LAKES   FOG       45  45 100 S5        29.96F VSB 1/2
PHILLIPS       CLOUDY    45  45 100 S7        29.96F FOG
TOMAHAWK       FOG       44  43  97 CALM      29.99F VSB 3/4
MEDFORD        FOG       44  44 100 S5        29.98F VSB 1/4
MERRILL        FOG       44  44 100 S3        30.00S VSB 1/2
$$

WIZ029-030-035-036-043>047-241600-
CENTRAL WISCONSIN

CITY           SKY/WX    TMP DP  RH WIND       PRES   REMARKS
WAUSAU         FOG       45  45 100 S3        29.99F VSB 1/2
MOSINEE        NOT AVBL
MARSHFIELD     FOG       47  46  97 S8        30.00S VSB 1/4
STEVENS POINT  FOG       44  44 100 SW3       30.02R VSB 1/4
WAUPACA        CLOUDY    49  47  96 CALM      30.02F FOG
WAUTOMA        NOT AVBL
WISC RAPIDS    FOG       47  46  97 S5        30.02F VSB 1/2
CAMP DOUGLAS   NOT AVBL
$$

WIZ011>013-019>022-031-037>040-048>050-241600-
NORTHEAST WISCONSIN

CITY           SKY/WX    TMP DP  RH WIND       PRES   REMARKS
ANTIGO         FOG       43  43 100 CALM      30.00S VSB 1/4
SHAWANO        CLOUDY    48  47  95 SW5       30.03R FOG
OCONTO         CLOUDY    46  46 100 SW6       30.02R
STURGEON BAY   CLOUDY    48  45  87 SW8       30.02R
GREEN BAY      CLOUDY    48  47  96 VRB6      30.03S FOG
MANITOWOC      NOT AVBL
APPLETON         N/A     46  46 100 SW8       30.03S FOG
CLINTONVILLE   CLOUDY    46  46 100 CALM      30.02S FOG
OSHKOSH        CLOUDY    49  47  93 S7        30.02F
$$

WIZ032>034-041-042-053>061-241600-
SOUTHWEST WISCONSIN

CITY           SKY/WX    TMP DP  RH WIND       PRES   REMARKS
LA CROSSE      CLOUDY    52  51  97 S12       29.99S FOG
SPARTA         CLOUDY    49  49  99 CALM      30.02R FOG
VIROQUA        CLOUDY    49  49 100 S6        30.00S VSB<1/4
BOSCOBEL       CLOUDY    53  51  93 S3        30.03R FOG
PRAIRIE DU CHI CLOUDY    53  51  96 E3        30.02R FOG
PLATTEVILLE    CLOUDY    52  51  97 S7        30.04S VSB<1/4
$$

WIZ056-057-062-063-064-067-068-241600-
SOUTH CENTRAL WISCONSIN

CITY           SKY/WX    TMP DP  RH WIND       PRES   REMARKS
REEDSBURG      CLOUDY    47  47 100 S6        30.02S FOG
BARABOO/DELLS  FOG       46  46  97 SW5       30.03R VSB 1/4
LONE ROCK      CLOUDY    53  48  83 S3        30.04R HAZE
MINERAL POINT  FOG       52  50  93 S6        30.03F VSB<1/4
MADISON        FOG       50  48  93 S8        30.04S VSB 3/4
MIDDLETON      CLOUDY    49  49 100 S6        30.04F VSB 1/2
WATERTOWN      CLOUDY    48  48 100 S3        30.05R FOG
MONROE         FOG       48  48 100 S6        30.05S VSB<1/4
JANESVILLE     NOT AVBL
$$

WIZ051-052-058>065-066-070>072-241600-
SOUTHEAST WISCONSIN

CITY           SKY/WX    TMP DP  RH WIND       PRES   REMARKS
MILWAUKEE      CLOUDY    51  48  89 W6        30.06R
WAUKESHA       CLOUDY    46  46 100 W5        30.06S FOG
MILWAUKEE/TIMM CLOUDY    48  46  93 W7        30.06S FOG
RACINE         CLOUDY    52  49  89 SW5       30.07S
BURLINGTON     CLOUDY    48  47  97 W3        30.06R
KENOSHA        CLOUDY    50  49  96 W3        30.06S FOG
FOND DU LAC    CLOUDY    49  46  90 SW6       30.04S
SHEBOYGAN      CLOUDY    50  47  89 W6        30.04S
WEST BEND      CLOUDY    46  45  93 W7        30.05R
JUNEAU         CLOUDY    47  47  99 S6        30.06R FOG
$$

LSZ147-162-241600-
LAKE SUPERIOR

STATION/POSITION TIME  TEMP    WIND        PRES    WAVE
                       AIR SEA DIR/SP/G            HT/PER
                 (UTC) (F)     (DEG/KT/KT) (MB)    (FT/S)
W MID LAKE BUOY  1350   47 46  160/  8/  8 1012.3F   1/ 3
DEVILS ISLAND    1400   50     180/  3/  5 1012.1F
PORT WING        1400   52     210/  6/ 10 1011.9F
SAXON HARBOR     1400   54     190/  9/ 14 1011.9F
$$

LMZ867-665-643>646-241600-
LAKE MICHIGAN

STATION/POSITION TIME  TEMP    WIND        PRES    WAVE
                       AIR SEA DIR/SP/G            HT/PER
                 (UTC) (F)     (DEG/KT/KT) (MB)    (FT/S)
CHAMBERS ISLAND  1400   48     200/  3/  7 1015.9F
N MID LAKE BUOY  1350   50 51  240/ 10/ 10 1016.3R   2/ 5
NORTHPORT PIER   1400   49     190/  3/  6 1015.6F
SISTER BAY       1428          210/  9/ 10   N/A
ALGOMA LAKESHORE 1356          230/  5/  6   N/A
KEWAUNEE LAKESHO 1400   49     250/  5/  7 1015.7F
SHEBOYGAN LAKESH 1400   49 50  260/  4/  6 1017.7F
PORT WASHINGTON  1440   50     290/  4/  7 1018.3S
ATWATER BUOY     1400   50     310/  4/  6 1018.7R
MILWAUKEE LAKESH 1400   50     310/  3/  4   N/A
S MID LAKE BUOY  1350   53 54  270/  8/ 10 1018.1R   1
KENOSHA   LAKESH 1400   50     300/  5/  8 1017.9S
$$

TC  - TEMPERATURE IN CELSIUS
VSB - VISIBILITY IN STATUTE MILES
WCI - WIND CHILL INDEX
HX  - HEAT INDEX




USA.gov is the U.S. government's official web portal to all federal, state and local government web resources and services.